Location: Unspecified
(0.0000°N, 0.0000°E)
Time: 16:22:16
(UTC+00:00)

Explorer 11/Cluster Stage 4 - Pass Details

Date: 21 November 2019
Orbit: 467 x 1259 km, 28.8° (Epoch: 12 December)

Event Time Altitude Azimuth Distance (km) Brightness Sun altitude
Rises 15:48:21 0° 264° (W) 2,486 10.3 27.5°
Reaches altitude 10° 15:50:47 10° 280° (W) 1,637 9.3 26.9°
Maximum altitude 15:53:44 22° 333° (NNW) 1,122 7.6 26.2°
Drops below altitude 10° 15:56:57 10° 26° (NNE) 1,802 8.1 25.5°
Sets 15:59:46 0° 41° (NE) 2,815 8.9 24.8°
